Baker Lake,

6:54 AM CDT on September 24, 2017 (GMT -0500)
Baker Lake

Weather History for CYBK - January, 2013

Change the Weather History Date:

Friday, January 4, 2013

  Actual Average Record
Temperature  
Mean Temperature -22 °F -  
Max Temperature -15 °F -21 °F 15 °F (2016)
Min Temperature -29 °F -33 °F -45 °F (1998)
Degree Days  
Heating Degree Days 87    
Moisture  
Dew Point -30 °F    
Average Humidity 64    
Maximum Humidity 70    
Minimum Humidity 47    
Precipitation  
Precipitation 0.01 in 0.01 in - ()
Sea Level Pressure  
Sea Level Pressure 29.72 in    
Wind  
Wind Speed 15 mph ()    
Max Wind Speed 31 mph    
Max Gust Speed 38 mph    
Visibility 4.7 miles    
Events Snow    
Averages and records for this station are not official NWS values.
T = Trace of Precipitation, MM = Missing Value Source: Averaged Metar Reports

Daily Weather History Graph

Daily Weather History Graph

Search for Another Location

Airport or City:

Trip Planner

Search our weather history database for the weather conditions in past years. The results will help you decide how hot, cold, wet, or windy it might be!

Date:

Astronomy

Jan. 04, 2013 Rise Set
Actual Time 10:14 AM CST 2:45 PM CST
Civil Twilight 8:58 AM CST 4:00 PM CST
Nautical Twilight 7:50 AM CST 5:08 PM CST
Astronomical Twilight 6:51 AM CST 6:08 PM CST
Moon 12:14 AM CST (1/4) 10:53 AM CST (1/4)
Length of Visible Light 7h 02m
Length of Day
4h 31m
Waning Gibbous, 55% of the Moon is Illuminated
Jan 4
Waning Gibbous
Jan 4
Last Quarter
Jan 11
New
Jan 18
First Quarter
Jan 26
Full

Hourly Weather History & Observations

Time (CST) Temp. Windchill Dew Point Humidity Pressure Visibility Wind Dir Wind Speed Gust Speed Precip Events Conditions
12:00 AM -21 °F - -30 °F 47% 29.70 in 15 mi NW 2.3 mph - - Snow Snow
12:00 AM -20.2 °F - -29.2 °F 63% 29.70 in 15.0 mi NW 2.3 mph - N/A   Partly Cloudy
1:00 AM -18.4 °F -33.4 °F -27.4 °F 63% 29.71 in 15.0 mi SSW 5.8 mph - N/A   Scattered Clouds
2:45 AM - - - N/A% - 3.0 mi WNW 28.8 mph - N/A   Unknown
3:00 AM -14.8 °F -41.2 °F -22.0 °F 70% 29.70 in 0.5 mi WNW 19.6 mph - N/A Snow Blowing Snow
3:35 AM - - - N/A% - 3.0 mi WNW 18.4 mph - N/A   Unknown
4:00 AM -14.8 °F -34.6 °F -22.0 °F 70% 29.70 in 4.0 mi WNW 10.4 mph - N/A Snow Light Snow
5:00 AM -14.8 °F -42.9 °F -22.0 °F 70% 29.68 in 10.0 mi WNW 23.0 mph - N/A Snow Light Snow
6:00 AM -16 °F - -23 °F 55% 29.68 in 15 mi WNW 15.0 mph - - Snow Light Snow
6:00 AM -14.8 °F -38.3 °F -23.8 °F 64% 29.68 in 15.0 mi WNW 15.0 mph - N/A Snow Light Snow
7:00 AM -16.6 °F -42.1 °F -25.6 °F 64% 29.66 in 15.0 mi WNW 17.3 mph - N/A Snow Light Snow
7:23 AM - - - N/A% - 15.0 mi WNW 20.7 mph - N/A   Unknown
8:00 AM -16.6 °F -42.9 °F -25.6 °F 64% 29.64 in 15.0 mi WNW 18.4 mph - N/A Snow Low Drifting Snow
9:00 AM -16.6 °F -43.5 °F -23.8 °F 70% 29.65 in 4.0 mi NW 19.6 mph 27.6 mph N/A Snow Ice Crystals
9:27 AM - - - N/A% - 1.5 mi NW 23.0 mph 32.2 mph N/A   Ice Crystals
9:46 AM - - - N/A% - 3.0 mi NW 18.4 mph 26.5 mph N/A   Ice Crystals
10:00 AM -20.2 °F -47.5 °F -29.2 °F 63% 29.66 in 6.0 mi NW 18.4 mph 26.5 mph N/A Snow Ice Crystals
10:31 AM - - - N/A% - 2.0 mi NW 21.9 mph 29.9 mph N/A   Ice Crystals
10:50 AM - - - N/A% - 0.8 mi NW 25.3 mph 35.7 mph N/A   Ice Crystals
11:00 AM -22.0 °F -53.6 °F -29.2 °F 69% 29.66 in 0.5 mi NW 25.3 mph 36.8 mph N/A Snow Ice Crystals
12:00 PM -24 °F - -32 °F 49% 29.70 in 1 mi NW 18.4 mph - - Snow Snow
12:00 PM -23.8 °F -51.5 °F -32.8 °F 63% 29.70 in 0.8 mi NW 17.3 mph 25.3 mph N/A Snow Ice Crystals
12:35 PM - - - N/A% - 0.5 mi NW 20.7 mph 28.8 mph N/A   Ice Crystals
1:00 PM -25.6 °F -57.9 °F -32.8 °F 69% 29.70 in 0.5 mi NW 24.2 mph 32.2 mph N/A Snow Ice Crystals
2:00 PM -25.6 °F -56.0 °F -34.6 °F 63% 29.72 in 0.2 mi NW 20.7 mph 33.4 mph N/A Snow Heavy Ice Crystals
3:00 PM -25.6 °F -53.8 °F -34.6 °F 63% 29.75 in 0.2 mi NW 17.3 mph 27.6 mph N/A Snow Heavy Ice Crystals
4:00 PM -27.4 °F -60.9 °F -34.6 °F 69% 29.75 in 0.2 mi NW 25.3 mph 34.5 mph N/A Snow Heavy Ice Crystals
5:00 PM -27.4 °F -56.9 °F -34.6 °F 69% 29.78 in 0.2 mi NW 18.4 mph 27.6 mph N/A Snow Heavy Ice Crystals
6:00 PM -28 °F - -36 °F 47% 29.78 in 0 mi NW 28.8 mph - - Snow Snow
6:00 PM -27.4 °F -59.7 °F -36.4 °F 62% 29.78 in 0.2 mi NW 23.0 mph 29.9 mph N/A Snow Heavy Ice Crystals
7:00 PM -29.2 °F -58.5 °F -36.4 °F 68% 29.81 in 0.2 mi NW 17.3 mph 26.5 mph N/A Snow Heavy Ice Crystals
8:00 PM -29.2 °F -57.6 °F -36.4 °F 68% 29.81 in 0.2 mi NW 16.1 mph 25.3 mph N/A Snow Heavy Ice Crystals
9:00 PM -29.2 °F -60.0 °F -36.4 °F 68% 29.82 in 0.2 mi NNW 19.6 mph 27.6 mph N/A Snow Heavy Ice Crystals
10:00 PM -29.2 °F -65.5 °F -36.4 °F 68% 29.81 in 0.2 mi NNW 29.9 mph 38.0 mph N/A Snow Heavy Ice Crystals
11:00 PM -27.4 °F -63.5 °F -36.4 °F 62% 29.82 in 0.2 mi NNW 31.1 mph 36.8 mph N/A Snow Heavy Ice Crystals